Temp
5 5 4 4 4 4 4 4 4 3 3 4 4 5 5 5 6 6 6 6 6 6 5 5 5 5 5 5 5 5 5 5 4 4 4 4 4 4 4 4 4 3
5 5 4 4 4 4 3 3 4 4 3 4 4 5 5 5 5 6 6 6 6 6 5 5 5 5 5 5 5 5 5 5 4 4 4 4 4 4 4 3 3 3
5 5 4 4 4 4 3 4 4 3 4 4 4 4 5 5 5 6 6 6 6 6 5 5 5 5 5 5 5 5 5 4 4 4 4 4 4 4 3 3 3 3
5 5 5 4 4 4 4 4 4 4 4 4 4 4 5 5 5 5 5 6 6 6 5 5 5 5 5 5 5 5 4 4 4 4 4 4 4 3 3 3 3 3
5 5 5 4 4 4 4 4 4 4 4 4 4 5 5 5 5 5 5 6 6 5 6 5 5 5 5 5 5 4 4 4 4 4 4 4 3 3 3 3 3 3
5 5 5 4 4 4 4 4 4 4 4 4 4 5 5 5 5 5 5 5 5 6 6 5 5 5 5 5 4 4 4 4 4 4 4 3 3 3 3 3 3 3
5 5 5 4 4 4 4 4 4 4 4 4 4 5 5 5 5 5 5 5 5 6 5 5 5 5 5 4 4 4 4 4 4 4 4 3 3 3 3 3 3 2
5 5 5 4 4 4 4 4 4 4 4 4 4 4 5 5 5 5 5 5 6 5 5 5 5 5 4 4 4 4 4 4 4 3 3 3 3 3 3 3 3 2
5 5 5 5 4 4 4 4 4 4 4 4 4 4 5 5 5 5 5 5 5 5 5 5 5 4 4 4 4 3 3 3 3 3 3 3 3 3 3 3 2 2
5 5 5 5 5 5 4 4 4 4 4 4 4 4 4 5 5 5 5 5 5 5 5 5 4 4 4 4 3 3 3 3 3 3 3 3 3 3 3 2 2 2
5 5 5 5 5 5 4 4 4 4 4 4 4 4 4 5 5 5 5 5 5 5 5 4 4 4 4 3 3 3 3 3 3 3 3 3 3 3 2 2 2 2
5 5 5 5 5 5 4 4 4 4 4 4 4 4 4 4 5 5 5 5 5 5 4 4 4 4 4 3 3 3 3 3 3 3 3 2 2 2 2 2 2 2
5 5 5 5 5 5 4 4 4 4 4 4 4 4 4 4 5 5 5 5 5 4 4 4 4 4 3 3 3 3 3 3 3 3 3 2 2 2 2 2 2 2
5 5 5 5 5 5 4 4 4 4 4 4 4 4 4 4 4 5 5 4 4 4 4 4 4 3 3 3 3 3 3 3 3 3 2 2 2 2 2 2 2 1
5 5 5 5 4 4 4 4 4 4 4 4 4 4 4 4 4 4 4 4 4 4 4 3 3 3 3 3 3 3 2 2 3 2 2 2 2 2 2 2 1 1
5 5 5 5 4 4 4 4 4 4 4 4 4 4 4 4 4 4 4 4 4 4 3 3 3 3 3 3 2 2 2 2 2 2 2 2 2 2 2 1 1 1
5 5 5 4 4 4 4 4 3 3 4 4 4 4 4 4 4 4 4 4 4 3 3 3 3 3 3 2 2 2 2 2 2 2 2 2 2 2 1 1 1 1
5 5 5 4 4 4 4 4 4 4 4 4 4 4 4 4 4 4 4 4 4 3 3 3 3 2 2 2 2 2 2 2 2 2 2 2 1 1 1 1 1 1
5 5 5 4 4 4 4 4 4 4 4 4 4 4 4 4 4 4 4 4 4 3 3 2 2 2 2 2 2 2 1 1 1 1 1 1 1 1 1 1 1 0
5 5 5 5 5 5 4 4 3 3 3 4 3 4 4 4 4 4 4 4 3 3 2 2 2 2 2 2 1 1 1 1 1 1 1 1 1 1 1 0 0 0
5 5 5 5 5 5 4 4 3 3 4 4 4 3 4 4 4 4 4 3 3 3 2 2 2 2 2 1 1 1 1 1 1 1 1 1 1 0 0 0 0 -0
5 5 5 5 5 4 4 4 4 3 4 4 4 3 4 3 3 3 3 3 3 2 2 2 2 1 1 1 1 1 1 1 1 1 1 0 0 0 0 -0 -0 -0
5 5 5 5 4 4 4 4 4 4 4 3 3 3 3 3 3 3 3 3 2 2 2 2 1 1 1 1 0 0 0 0 0 0 0 0 0 -0 -0 -0 -1 -1
5 5 5 5 4 4 4 4 4 4 3 3 3 3 3 2 3 3 3 2 2 1 1 1 1 1 1 0 0 -0 -0 0 -0 -0 -0 -0 -0 -0 -1 -1 -1 -1
5 5 5 4 4 4 4 4 4 3 3 3 3 3 3 3 3 3 2 2 2 1 1 1 1 0 0 0 -0 -0 -0 -0 -0 -0 -0 -0 -1 -1 -1 -1 -1 -1
5 5 5 4 4 4 4 4 3 3 2 2 2 2 3 3 3 2 2 2 1 1 1 1 1 0 -0 -1 -1 -1 -1 -1 -1 -1 -1 -1 -1 -1 -1 -1 -1 -1
Height
3134 3134 3135 3136 3137 3138 3140 3141 3143 3144 3146 3148 3150 3152 3152 3153 3154 3156 3156 3156 3156 3156 3156 3156 3155 3155 3155 3154 3154 3153 3152 3151 3150 3150 3149 3149 3148 3148 3147 3147 3146 3145
3132 3133 3134 3134 3135 3136 3138 3140 3142 3143 3145 3147 3149 3150 3151 3151 3153 3154 3154 3154 3154 3154 3154 3154 3154 3153 3153 3152 3152 3151 3151 3150 3149 3148 3148 3147 3147 3147 3146 3146 3145 3144
3130 3131 3132 3133 3133 3135 3137 3139 3140 3142 3143 3145 3147 3148 3149 3150 3151 3152 3152 3152 3152 3152 3152 3152 3152 3151 3151 3151 3150 3150 3149 3148 3147 3147 3146 3146 3146 3145 3145 3144 3144 3143
3129 3130 3130 3131 3133 3134 3136 3137 3139 3140 3142 3144 3146 3147 3148 3149 3149 3149 3150 3150 3150 3150 3150 3150 3150 3150 3149 3149 3148 3148 3147 3146 3146 3145 3145 3145 3145 3144 3144 3143 3142 3142
3127 3128 3129 3130 3132 3133 3135 3136 3137 3139 3140 3142 3144 3145 3146 3146 3147 3148 3148 3148 3148 3148 3148 3148 3148 3148 3147 3147 3147 3146 3145 3145 3144 3144 3144 3144 3143 3143 3142 3142 3141 3140
3125 3126 3128 3129 3131 3132 3133 3135 3136 3138 3139 3141 3142 3143 3144 3144 3145 3145 3146 3146 3146 3146 3146 3146 3146 3146 3146 3145 3145 3144 3143 3143 3143 3143 3142 3142 3142 3141 3141 3141 3140 3139
3124 3125 3126 3128 3129 3131 3132 3133 3135 3136 3137 3139 3140 3141 3142 3142 3143 3143 3144 3144 3144 3144 3144 3144 3144 3144 3144 3143 3143 3142 3142 3142 3141 3141 3141 3141 3140 3140 3140 3139 3138 3137
3122 3123 3125 3126 3128 3129 3130 3132 3133 3134 3136 3137 3138 3139 3140 3140 3141 3141 3142 3142 3142 3142 3142 3142 3142 3142 3142 3142 3141 3141 3140 3140 3140 3139 3139 3139 3139 3139 3138 3137 3136 3135
3120 3122 3123 3125 3126 3127 3129 3130 3131 3133 3134 3135 3136 3137 3138 3138 3139 3139 3139 3140 3140 3140 3140 3141 3141 3140 3140 3140 3139 3139 3139 3138 3138 3138 3138 3138 3137 3137 3137 3136 3135 3134
3118 3120 3121 3123 3124 3126 3127 3128 3130 3131 3132 3134 3135 3136 3136 3136 3137 3137 3137 3138 3138 3138 3139 3139 3139 3138 3138 3138 3138 3138 3137 3137 3137 3136 3136 3136 3136 3136 3135 3134 3134 3133
3116 3118 3120 3121 3122 3124 3125 3127 3128 3129 3131 3132 3133 3134 3134 3134 3135 3135 3135 3136 3136 3136 3137 3137 3136 3136 3136 3136 3136 3136 3136 3135 3135 3135 3135 3135 3134 3134 3133 3133 3132 3132
3115 3116 3118 3119 3121 3122 3124 3125 3126 3127 3129 3130 3131 3132 3132 3132 3133 3133 3133 3134 3134 3134 3134 3135 3134 3134 3134 3135 3134 3134 3134 3134 3133 3133 3133 3133 3133 3132 3132 3131 3131 3131
3113 3115 3116 3118 3119 3120 3122 3123 3124 3126 3127 3128 3129 3129 3130 3130 3130 3131 3131 3132 3132 3132 3132 3132 3132 3133 3133 3133 3133 3133 3132 3132 3132 3132 3131 3131 3131 3131 3130 3130 3130 3129
3111 3113 3114 3116 3117 3118 3119 3120 3122 3123 3124 3126 3126 3127 3127 3128 3128 3129 3129 3129 3130 3130 3130 3131 3131 3131 3131 3131 3131 3131 3131 3130 3130 3130 3130 3130 3129 3129 3129 3128 3128 3128
3109 3110 3112 3113 3115 3116 3117 3118 3120 3121 3122 3123 3124 3125 3125 3126 3126 3127 3127 3127 3128 3128 3128 3128 3129 3129 3129 3129 3128 3129 3129 3128 3128 3128 3128 3128 3127 3127 3127 3127 3127 3126
3106 3108 3110 3111 3112 3114 3115 3116 3117 3118 3120 3121 3122 3123 3123 3124 3125 3125 3125 3125 3126 3126 3126 3126 3127 3127 3127 3126 3126 3127 3127 3126 3126 3126 3126 3126 3125 3125 3125 3125 3125 3125
3104 3106 3107 3109 3110 3111 3112 3114 3115 3116 3118 3119 3120 3121 3122 3123 3123 3123 3123 3123 3123 3123 3124 3124 3124 3124 3124 3124 3124 3124 3124 3124 3124 3123 3123 3123 3123 3123 3123 3123 3123 3123
3102 3103 3105 3106 3107 3108 3109 3112 3114 3116 3117 3118 3118 3119 3120 3120 3120 3120 3120 3120 3120 3120 3121 3121 3121 3122 3122 3122 3122 3122 3122 3122 3121 3121 3121 3121 3121 3121 3121 3121 3121 3121
3100 3101 3102 3103 3103 3105 3108 3111 3113 3115 3116 3116 3116 3116 3116 3116 3117 3117 3117 3117 3117 3117 3118 3118 3119 3119 3119 3119 3120 3120 3120 3120 3119 3119 3118 3119 3119 3119 3119 3119 3119 3119
3097 3098 3099 3100 3102 3106 3108 3110 3111 3112 3113 3113 3113 3113 3113 3113 3114 3114 3114 3114 3114 3115 3115 3115 3116 3117 3117 3117 3117 3118 3118 3118 3117 3116 3116 3116 3117 3117 3117 3118 3117 3117
3095 3096 3098 3100 3103 3105 3106 3107 3108 3109 3110 3110 3110 3110 3110 3111 3111 3111 3111 3111 3111 3112 3112 3112 3113 3114 3114 3114 3115 3115 3115 3115 3115 3114 3114 3114 3115 3115 3115 3115 3115 3115
3093 3095 3097 3100 3102 3102 3103 3104 3105 3106 3107 3107 3107 3107 3107 3107 3108 3108 3108 3108 3108 3109 3109 3110 3110 3111 3111 3112 3112 3113 3113 3113 3113 3112 3112 3112 3112 3113 3113 3113 3113 3113
3092 3094 3096 3097 3098 3099 3100 3101 3102 3102 3103 3104 3104 3104 3104 3104 3104 3104 3104 3104 3105 3105 3105 3106 3107 3108 3108 3108 3109 3110 3110 3111 3110 3110 3110 3110 3110 3110 3111 3111 3111 3111
3090 3092 3093 3094 3095 3096 3096 3098 3098 3099 3100 3101 3101 3101 3100 3101 3100 3100 3100 3100 3100 3101 3102 3103 3105 3105 3105 3105 3106 3107 3107 3108 3108 3107 3107 3107 3108 3108 3108 3108 3109 3109
3088 3089 3090 3091 3092 3092 3093 3094 3095 3095 3097 3098 3098 3097 3097 3097 3096 3096 3095 3095 3094 3096 3098 3100 3101 3102 3102 3102 3103 3104 3105 3105 3105 3105 3105 3105 3105 3105 3105 3106 3106 3106
3085 3086 3087 3087 3088 3089 3090 3090 3091 3092 3092 3093 3094 3094 3094 3093 3093 3093 3093 3093 3092 3093 3094 3095 3096 3097 3098 3099 3100 3101 3102 3102 3102 3102 3103 3103 3103 3103 3103 3103 3104 3104
Wind_Speed
17 18 19 20 21 23 25 27 27 25 24 23 22 22 20 18 18 17 15 15 14 12 12 13 13 13 13 12 12 12 11 10 9 9 8 9 9 10 10 11 13 13
18 19 19 20 22 24 26 27 26 24 24 24 23 22 21 19 19 18 17 16 16 14 14 14 14 14 13 12 12 11 11 10 9 8 8 9 9 10 11 12 13 13
18 18 18 19 21 23 25 25 24 24 24 24 22 21 20 19 18 18 17 17 16 15 15 15 14 14 13 12 12 11 10 9 8 8 9 9 10 11 12 13 13 13
18 17 17 19 20 23 24 24 23 23 23 22 21 20 18 17 18 18 17 17 17 16 16 15 14 14 13 12 12 11 10 9 8 9 9 10 10 11 12 12 12 12
18 18 18 20 22 23 23 23 22 23 23 21 20 19 18 18 18 18 17 17 17 16 16 15 15 14 13 13 12 11 9 9 9 10 10 10 11 11 12 12 12 11
19 19 19 21 23 23 23 23 23 23 22 21 20 19 19 19 18 18 18 17 17 16 16 15 15 14 13 13 12 10 9 9 10 10 10 11 11 12 12 11 11 11
20 20 20 21 25 25 24 23 23 23 22 21 20 20 19 19 19 18 18 17 17 16 15 15 15 14 14 13 12 10 10 10 10 10 11 11 11 12 11 11 11 10
20 20 20 21 25 26 25 24 24 23 22 21 21 20 19 19 18 18 18 17 17 16 15 15 15 14 14 13 12 11 11 11 11 11 11 11 11 11 11 10 10 10
21 21 21 21 24 26 25 24 24 23 22 22 21 20 19 18 18 17 17 17 16 15 15 15 15 14 14 13 13 12 12 11 11 11 11 11 12 11 10 10 9 9
22 22 23 22 24 25 25 25 24 23 22 21 21 20 19 18 17 17 17 17 16 15 15 15 15 15 14 14 14 13 12 12 12 11 11 12 12 11 10 9 9 9
23 23 24 24 24 25 26 25 24 23 22 22 21 20 19 17 17 17 17 16 16 16 16 16 15 15 15 15 15 14 13 13 12 12 12 12 11 10 9 9 9 9
23 24 25 25 25 26 26 26 24 23 23 22 21 21 19 18 17 17 17 17 17 17 16 16 16 16 16 15 15 14 14 13 13 13 12 12 11 10 9 9 10 9
23 24 25 26 26 26 27 26 25 24 24 23 22 22 20 18 18 17 17 18 18 17 17 17 16 16 16 16 15 15 14 14 13 14 13 12 11 10 9 10 10 9
24 25 26 26 27 27 27 27 26 26 25 24 23 23 21 19 18 18 18 18 18 18 18 17 17 17 17 16 16 15 15 14 14 14 13 12 11 10 10 10 10 9
25 26 27 27 27 28 28 28 27 27 26 25 24 24 22 20 19 19 19 19 18 18 18 18 18 18 18 17 16 16 16 15 15 15 14 13 12 11 10 10 10 9
27 27 27 27 28 29 29 29 28 27 26 25 24 24 23 21 20 19 19 19 19 19 19 19 19 19 18 17 17 17 17 16 16 15 14 13 12 11 11 11 11 10
28 27 27 27 28 29 30 29 27 26 26 26 25 25 24 23 21 20 20 20 20 20 20 20 20 19 18 18 18 18 18 17 16 16 15 13 13 12 11 12 11 10
29 29 28 28 29 30 30 29 27 26 25 26 26 27 26 25 23 22 22 21 21 21 21 21 21 19 19 19 19 19 19 18 17 16 15 14 13 12 12 12 12 11
30 30 30 30 31 31 29 27 26 25 25 27 27 28 28 28 26 25 23 23 22 22 22 22 21 20 20 20 20 20 20 19 18 17 15 14 14 13 13 13 13 13
31 32 33 33 32 29 27 26 26 26 27 28 29 29 30 30 29 27 25 24 23 22 23 23 22 21 21 20 20 21 21 20 19 17 16 15 14 14 13 13 14 14
32 33 33 32 29 26 26 27 28 28 28 29 30 32 32 32 31 29 26 24 24 24 24 24 23 22 22 21 21 22 22 21 19 18 17 16 15 15 14 14 15 14
32 32 31 29 27 27 28 28 29 29 29 30 31 33 34 35 33 31 28 26 25 25 25 24 24 24 23 22 22 23 23 21 20 19 18 17 16 16 16 15 16 15
30 30 30 29 28 28 29 29 29 30 31 32 32 34 36 36 35 32 29 27 27 26 26 26 25 24 24 23 23 24 23 22 21 20 19 18 17 17 17 17 16 16
28 29 29 29 29 30 30 29 29 30 31 32 34 35 35 35 36 34 32 29 29 28 27 26 25 25 26 25 24 24 24 22 22 21 20 19 19 18 18 18 17 16
28 28 29 29 30 30 30 30 30 31 31 30 31 32 32 33 37 38 37 34 32 30 27 27 26 27 27 26 24 24 24 23 23 22 21 20 20 20 20 19 18 17
27 28 28 29 30 31 31 32 31 31 31 30 29 28 29 30 33 37 39 38 34 29 27 27 29 29 28 26 25 25 25 24 23 22 22 21 21 21 21 20 19 18
Wind_Direction
227 226 228 231 231 226 216 207 203 204 204 207 210 214 217 217 220 233 244 251 260 271 279 281 280 277 276 278 279 281 282 285 287 290 295 297 300 302 305 313 318 321
226 225 226 229 228 220 209 204 204 205 207 211 216 221 225 223 226 239 249 254 261 270 277 279 277 274 275 276 276 277 279 283 286 290 295 296 299 302 307 315 318 319
224 224 225 228 223 210 203 202 204 207 211 216 220 223 225 224 230 241 250 254 260 268 274 275 273 271 272 272 273 275 277 280 283 288 293 293 296 302 309 315 316 316
223 221 222 223 212 201 200 202 206 211 216 220 221 222 225 228 235 245 251 253 258 266 269 269 268 268 269 268 268 271 272 276 280 285 289 290 294 303 309 313 313 314
220 218 219 217 207 201 203 206 209 213 217 220 222 223 228 234 242 248 251 252 256 262 263 262 263 264 264 264 265 266 267 271 278 281 284 287 295 304 308 310 311 313
220 219 218 214 208 206 208 210 211 212 216 220 223 226 232 239 245 248 249 251 254 256 257 258 260 260 260 261 260 260 262 267 273 278 282 287 296 303 305 307 309 312
224 222 218 212 209 210 211 211 212 213 216 220 224 230 235 241 245 247 247 249 249 251 253 254 256 257 257 258 256 255 258 264 270 275 280 287 296 301 302 306 309 312
225 222 217 213 211 212 212 212 214 215 218 223 227 232 238 242 245 245 245 245 245 248 251 252 254 254 255 255 252 251 255 261 267 272 279 288 295 297 300 305 308 310
224 220 215 213 213 213 213 214 216 217 221 226 229 234 239 243 244 243 242 242 244 247 249 251 252 252 254 252 249 249 254 259 265 270 279 288 291 293 298 304 307 308
223 218 214 212 212 211 212 215 217 220 224 227 231 235 239 242 243 242 241 242 243 246 248 250 251 251 252 249 247 249 252 257 262 268 277 284 287 291 297 300 302 303
222 217 214 212 212 211 212 216 219 222 226 229 233 236 238 241 243 241 242 243 243 245 247 248 250 251 249 247 247 249 251 255 261 267 276 281 284 289 293 296 297 297
222 217 214 213 213 213 214 218 222 224 228 232 235 235 237 242 244 244 244 244 244 245 247 248 250 250 247 246 247 249 251 255 260 268 274 279 282 285 288 291 291 290
222 217 215 214 215 216 217 220 223 226 230 234 236 235 239 245 248 247 246 245 246 247 248 249 250 249 247 246 247 249 251 255 261 269 274 276 278 281 283 286 285 284
221 218 216 216 217 218 219 221 225 228 232 236 237 237 241 249 252 249 247 246 247 248 249 251 250 249 248 246 247 250 252 256 262 268 272 274 275 277 279 281 280 280
222 219 218 217 218 220 221 224 226 230 233 237 239 239 243 251 253 251 249 248 249 249 250 251 250 249 249 247 248 250 252 256 262 267 271 272 273 275 277 277 276 276
223 222 221 220 220 222 225 226 228 231 235 238 240 241 245 252 255 254 252 250 249 250 250 250 250 250 249 247 248 249 252 255 260 266 269 270 272 274 274 273 273 273
224 224 223 224 224 225 227 228 229 232 237 240 242 244 248 254 258 257 255 252 250 249 249 249 249 249 248 248 248 248 250 254 258 264 267 268 270 272 271 271 270 270
225 225 226 227 227 228 230 231 232 236 240 242 242 243 248 253 255 255 253 251 250 248 247 248 248 248 247 247 248 248 249 252 256 261 264 265 268 269 268 268 268 267
226 226 227 229 230 232 234 235 237 240 242 244 245 245 246 249 250 250 249 248 247 247 247 248 248 246 246 246 247 247 249 250 253 258 260 261 264 265 264 265 265 265
227 227 228 231 234 237 239 239 239 240 241 243 246 249 250 250 250 249 247 247 247 246 247 247 247 245 244 245 245 245 247 250 252 255 257 257 259 260 260 260 261 263
229 230 232 235 239 241 241 241 241 241 241 242 245 249 251 252 252 250 247 246 246 246 246 247 247 246 243 242 243 244 246 248 252 253 254 255 255 255 255 255 257 259
232 234 236 239 241 242 242 243 243 243 243 244 246 248 251 252 251 248 246 245 244 244 246 246 245 243 242 241 241 243 245 247 249 252 252 252 251 251 251 251 253 256
235 236 238 240 241 243 245 246 247 247 246 246 247 247 248 250 251 247 243 241 241 241 243 244 244 242 241 240 239 241 244 245 247 249 250 250 250 249 248 248 249 252
237 239 240 241 243 246 248 250 251 252 253 253 253 251 249 249 251 248 242 237 236 237 239 242 243 243 243 242 240 240 241 243 245 247 248 249 249 247 246 245 246 248
239 241 243 244 245 247 250 252 253 255 258 259 260 260 259 256 255 253 248 239 231 229 234 240 242 242 243 243 240 238 239 241 243 245 246 247 247 246 245 243 244 245
241 243 245 246 247 249 251 253 256 258 260 261 264 268 270 268 265 262 257 247 235 227 230 239 242 240 237 237 235 235 238 240 241 243 244 244 244 244 244 242 242 243